User: anonymous   Login
Location: State Line Observation Field
(36.5320°N, 77.5360°W)
Time: 02:36:06
(UTC-04:00)
Language:

ITUPSAT 1 - Orbit

View from above orbital plane
View from above orbital plane
View from above satellite
View from above satellite

Ground track
Ground track

The orbit data is extracted from the following two-line orbital elements,

1 35935U 09051E   21130.52085843  .00000109  00000-0  36160-4 0  9992
2 35935  98.6125 331.3213 0007349 210.8783 149.1982 14.55718232617259
Epoch (UTC): 10 May 2021 12:30:02
Eccentricity: 0.0007349
inclination: 98.6125°
perigee height: 702 km
apogee height: 712 km
right ascension of ascending node: 331.3213°
argument of perigee: 210.8783°
revolutions per day: 14.55718232
mean anomaly at epoch: 149.1982°
orbit number at epoch: 61725

The dashed part of the orbit path shows where the satellite is in the earth's shadow,  

DLR